TimeCST,TemperatureF,Dew PointF,Humidity,Sea Level PressureIn,VisibilityMPH,Wind Direction,Wind SpeedMPH,Gust SpeedMPH,PrecipitationIn,Events,Conditions,WindDirDegrees,DateUTC
12:15 AM,20.3,19.8,98,30.39,7.0,Calm,Calm,-,N/A,,Clear,0,2013-01-04 06:15:00
12:35 AM,20.3,19.4,96,30.39,7.0,Calm,Calm,-,N/A,,Clear,0,2013-01-04 06:35:00
12:55 AM,19.8,19.0,97,30.38,7.0,Calm,Calm,-,N/A,,Clear,0,2013-01-04 06:55:00
1:15 AM,19.9,19.2,97,30.38,7.0,SSW,3.5,-,N/A,,Clear,210,2013-01-04 07:15:00
1:35 AM,19.6,18.9,97,30.38,7.0,Calm,Calm,-,N/A,,Clear,0,2013-01-04 07:35:00
1:55 AM,18.5,17.8,97,30.39,7.0,Calm,Calm,-,N/A,,Clear,0,2013-01-04 07:55:00
2:15 AM,18.5,17.6,96,30.40,5.0,Calm,Calm,-,N/A,,Clear,0,2013-01-04 08:15:00
2:35 AM,18.9,18.1,97,30.40,7.0,Calm,Calm,-,N/A,,Clear,0,2013-01-04 08:35:00
2:55 AM,18.5,17.8,97,30.41,5.0,Calm,Calm,-,N/A,,Clear,0,2013-01-04 08:55:00
3:15 AM,18.3,17.4,96,30.40,5.0,Calm,Calm,-,N/A,,Clear,0,2013-01-04 09:15:00
5:55 AM,14.2,12.9,95,30.38,7.0,Calm,Calm,-,N/A,,Clear,0,2013-01-04 11:55:00
6:15 AM,14.9,13.8,95,30.38,7.0,Calm,Calm,-,N/A,,Clear,0,2013-01-04 12:15:00
6:35 AM,16.3,15.3,96,30.39,7.0,Calm,Calm,-,N/A,,Clear,0,2013-01-04 12:35:00
7:15 AM,16.5,15.4,96,30.39,7.0,Calm,Calm,-,N/A,,Clear,0,2013-01-04 13:15:00
7:35 AM,16.2,14.9,95,30.39,5.0,Calm,Calm,-,N/A,,Clear,0,2013-01-04 13:35:00
7:55 AM,15.3,14.0,95,30.39,7.0,South,3.5,-,N/A,,Clear,170,2013-01-04 13:55:00
8:15 AM,15.8,14.5,95,30.39,7.0,South,3.5,-,N/A,,Clear,190,2013-01-04 14:15:00
8:35 AM,16.9,15.8,96,30.39,7.0,South,3.5,-,N/A,,Clear,190,2013-01-04 14:35:00
8:55 AM,19.6,18.9,97,30.39,7.0,SSW,3.5,-,N/A,,Clear,200,2013-01-04 14:55:00
9:15 AM,21.4,20.7,97,30.39,7.0,Calm,Calm,-,N/A,,Clear,0,2013-01-04 15:15:00
9:35 AM,23.4,22.6,97,30.40,7.0,SSW,3.5,-,N/A,,Clear,200,2013-01-04 15:35:00
9:55 AM,25.5,25.0,98,30.40,10.0,SSW,5.8,-,N/A,,Clear,210,2013-01-04 15:55:00
10:15 AM,28.2,26.2,92,30.40,10.0,SW,5.8,-,N/A,,Clear,220,2013-01-04 16:15:00
10:35 AM,30.9,23.4,74,30.40,10.0,SW,5.8,-,N/A,,Clear,230,2013-01-04 16:35:00
10:55 AM,32.0,22.1,67,30.40,10.0,SW,8.1,-,N/A,,Clear,220,2013-01-04 16:55:00
11:15 AM,33.1,21.9,64,30.40,10.0,SSW,9.2,-,N/A,,Clear,210,2013-01-04 17:15:00
11:35 AM,34.2,22.6,63,30.39,10.0,SSW,8.1,-,N/A,,Clear,210,2013-01-04 17:35:00
11:55 AM,34.9,22.6,61,30.38,10.0,SSW,11.5,-,N/A,,Clear,210,2013-01-04 17:55:00
12:15 PM,35.6,22.6,59,30.36,10.0,SW,11.5,16.1,N/A,,Clear,230,2013-01-04 18:15:00
12:35 PM,35.6,22.5,59,30.36,10.0,SW,11.5,17.3,N/A,,Clear,230,2013-01-04 18:35:00
12:55 PM,36.1,23.0,59,30.35,10.0,SSW,10.4,-,N/A,,Clear,210,2013-01-04 18:55:00
1:15 PM,36.7,23.4,59,30.34,10.0,SW,9.2,-,N/A,,Clear,220,2013-01-04 19:15:00
1:35 PM,37.4,23.2,57,30.34,10.0,SSW,8.1,-,N/A,,Clear,200,2013-01-04 19:35:00
1:55 PM,37.9,23.0,55,30.33,10.0,SW,8.1,-,N/A,,Clear,220,2013-01-04 19:55:00
2:15 PM,38.8,23.2,53,30.32,10.0,SSW,6.9,-,N/A,,Clear,210,2013-01-04 20:15:00
2:35 PM,39.2,22.8,52,30.32,10.0,SSW,6.9,-,N/A,,Clear,210,2013-01-04 20:35:00
2:55 PM,39.6,22.8,51,30.32,10.0,SSW,4.6,-,N/A,,Clear,200,2013-01-04 20:55:00
3:15 PM,39.7,23.0,51,30.31,10.0,SW,5.8,-,N/A,,Clear,220,2013-01-04 21:15:00
3:35 PM,39.7,23.0,51,30.31,10.0,SSW,5.8,-,N/A,,Clear,200,2013-01-04 21:35:00
3:55 PM,39.6,23.0,52,30.30,10.0,SSW,4.6,-,N/A,,Clear,210,2013-01-04 21:55:00
4:15 PM,39.4,22.6,51,30.30,10.0,SSW,5.8,-,N/A,,Clear,210,2013-01-04 22:15:00
4:35 PM,38.7,23.0,53,30.30,10.0,SSW,4.6,-,N/A,,Clear,200,2013-01-04 22:35:00
4:55 PM,37.4,23.0,56,30.29,10.0,SSW,4.6,-,N/A,,Clear,200,2013-01-04 22:55:00
5:15 PM,36.5,22.8,58,30.29,10.0,SSW,3.5,-,N/A,,Clear,200,2013-01-04 23:15:00
5:35 PM,35.8,22.5,58,30.29,10.0,Calm,Calm,-,N/A,,Clear,0,2013-01-04 23:35:00
5:55 PM,34.0,22.5,63,30.29,10.0,South,4.6,-,N/A,,Clear,170,2013-01-04 23:55:00
6:15 PM,32.7,22.3,65,30.30,10.0,South,3.5,-,N/A,,Clear,180,2013-01-05 00:15:00
6:35 PM,32.2,22.3,67,30.30,10.0,South,3.5,-,N/A,,Clear,190,2013-01-05 00:35:00
6:55 PM,32.0,21.9,66,30.30,10.0,South,3.5,-,N/A,,Clear,190,2013-01-05 00:55:00
7:15 PM,30.7,21.7,69,30.29,10.0,South,4.6,-,N/A,,Clear,180,2013-01-05 01:15:00
7:35 PM,30.9,21.7,69,30.29,10.0,Calm,Calm,-,N/A,,Clear,0,2013-01-05 01:35:00
7:55 PM,30.9,21.4,68,30.28,10.0,South,3.5,-,N/A,,Clear,180,2013-01-05 01:55:00
8:15 PM,30.6,21.2,68,30.28,10.0,South,3.5,-,N/A,,Clear,180,2013-01-05 02:15:00
8:35 PM,30.0,21.0,69,30.28,10.0,South,4.6,-,N/A,,Clear,180,2013-01-05 02:35:00
8:55 PM,30.6,21.2,68,30.28,10.0,South,4.6,-,N/A,,Clear,170,2013-01-05 02:55:00
9:15 PM,30.2,20.8,68,30.28,10.0,South,4.6,-,N/A,,Clear,180,2013-01-05 03:15:00
9:35 PM,29.8,20.8,69,30.28,10.0,South,4.6,-,N/A,,Clear,180,2013-01-05 03:35:00
9:55 PM,30.0,21.0,69,30.28,10.0,South,3.5,-,N/A,,Clear,170,2013-01-05 03:55:00
10:15 PM,30.0,21.0,69,30.28,10.0,South,4.6,-,N/A,,Clear,170,2013-01-05 04:15:00
10:35 PM,30.4,21.2,69,30.28,10.0,South,3.5,-,N/A,,Clear,170,2013-01-05 04:35:00
10:55 PM,30.0,21.2,70,30.28,10.0,South,4.6,-,N/A,,Clear,170,2013-01-05 04:55:00
11:15 PM,29.7,21.2,71,30.28,10.0,South,4.6,-,N/A,,Clear,170,2013-01-05 05:15:00
11:35 PM,29.1,21.0,72,30.28,10.0,South,3.5,-,N/A,,Clear,190,2013-01-05 05:35:00
11:55 PM,28.8,21.0,73,30.27,10.0,South,3.5,-,N/A,,Clear,190,2013-01-05 05:55:00